| time (UTC) | temp F | wind direction | speed knots | gust knots | rain 1hr in | rain 24hr in | rain mn in | humidity % | barometer mb |
| 20260505152534 | 61 | 16 | 3.5 | 6.1 | 0.00 | 0.01 | 0.00 | 53 | 1018.1 |
| 20260505151634 | 61 | 296 | 1.7 | 9.6 | 0.00 | 0.01 | 0.00 | 54 | 1018.2 |
| 20260505150734 | 61 | 318 | 3.5 | 7.0 | 0.00 | 0.01 | 0.00 | 55 | 1018.1 |
| 20260505140434 | 51 | 80 | 1.7 | 2.6 | 0.00 | 0.01 | 0.01 | 72 | 1018.2 |
| 20260505130135 | 52 | 11 | 0.9 | 1.7 | 0.00 | 0.01 | 0.01 | 71 | 1018.3 |
| 20260505124335 | 53 | 32 | 1.7 | 2.6 | 0.00 | 0.01 | 0.01 | 71 | 1018.5 |
| 20260505123434 | 53 | 22 | 0.0 | 1.7 | 0.00 | 0.01 | 0.01 | 70 | 1018.6 |
| 20260505120734 | 54 | 22 | 0.0 | 0.9 | 0.00 | 0.01 | 0.01 | 66 | 1018.4 |
| 20260505115834 | 54 | 22 | 0.0 | 0.9 | 0.00 | 0.01 | 0.01 | 62 | 1018.2 |
| 20260505114934 | 55 | 22 | 0.0 | 0.9 | 0.00 | 0.01 | 0.01 | 61 | 1018.4 |
| 20260505114034 | 55 | 359 | 0.0 | 1.7 | 0.00 | 0.01 | 0.01 | 60 | 1018.1 |
| 20260505113134 | 56 | 321 | 0.0 | 0.9 | 0.00 | 0.01 | 0.01 | 58 | 1018.3 |
| 20260505112234 | 56 | 302 | 0.0 | 0.9 | 0.00 | 0.01 | 0.01 | 55 | 1018.2 |
| 20260505111334 | 57 | 270 | 0.0 | 0.9 | 0.00 | 0.01 | 0.01 | 54 | 1018.1 |
| 20260505110435 | 57 | 300 | 0.0 | 1.7 | 0.00 | 0.01 | 0.01 | 53 | 1018.1 |
| 20260505101935 | 60 | 250 | 0.0 | 1.7 | 0.00 | 0.02 | 0.01 | 39 | 1017.4 |
| 20260505101033 | 60 | 270 | 0.9 | 2.6 | 0.00 | 0.02 | 0.01 | 37 | 1017.4 |
| 20260505100135 | 61 | 247 | 0.0 | 2.6 | 0.00 | 0.04 | 0.01 | 34 | 1017.3 |
| 20260505095235 | 62 | 255 | 1.7 | 3.5 | 0.00 | 0.04 | 0.01 | 33 | 1017.4 |
| 20260505094334 | 62 | 240 | 1.7 | 2.6 | 0.00 | 0.04 | 0.01 | 33 | 1017.4 |
| 20260505092534 | 65 | 55 | 1.7 | 3.5 | 0.00 | 0.04 | 0.01 | 31 | 1017.1 |
| 20260505085835 | 69 | 79 | 3.5 | 3.5 | 0.00 | 0.04 | 0.01 | 30 | 1016.9 |
| 20260505084935 | 69 | 229 | 0.9 | 3.5 | 0.00 | 0.04 | 0.01 | 25 | 1016.7 |
| 20260505083135 | 70 | 259 | 3.5 | 5.2 | 0.00 | 0.05 | 0.01 | 24 | 1016.2 |
| 20260505082233 | 70 | 213 | 1.7 | 5.2 | 0.00 | 0.06 | 0.01 | 24 | 1016.2 |
| 20260505080434 | 70 | 213 | 1.7 | 4.3 | 0.00 | 0.07 | 0.01 | 23 | 1016.1 |
| 20260505075534 | 69 | 236 | 3.5 | 4.3 | 0.00 | 0.07 | 0.01 | 23 | 1016.3 |
| 20260505073734 | 69 | 229 | 1.7 | 7.0 | 0.00 | 0.14 | 0.01 | 23 | 1016.4 |
| 20260505071933 | 70 | 225 | 3.5 | 7.0 | 0.00 | 0.18 | 0.01 | 23 | 1016.2 |
| 20260505071034 | 71 | 222 | 3.5 | 6.1 | 0.00 | 0.18 | 0.01 | 23 | 1016.4 |
| 20260505070134 | 70 | 238 | 3.5 | 6.1 | 0.00 | 0.18 | 0.01 | 24 | 1016.3 |
| 20260505064335 | 71 | 211 | 3.5 | 7.8 | 0.00 | 0.21 | 0.01 | 23 | 1016.4 |
| 20260505063434 | 72 | 233 | 3.5 | 7.8 | 0.00 | 0.21 | 0.01 | 22 | 1016.4 |
| 20260505062534 | 74 | 257 | 3.5 | 5.2 | 0.00 | 0.21 | 0.01 | 21 | 1016.5 |
| 20260505061633 | 75 | 248 | 1.7 | 3.5 | 0.00 | 0.21 | 0.01 | 21 | 1016.5 |
| 20260505060734 | 74 | 238 | 1.7 | 5.2 | 0.00 | 0.27 | 0.01 | 21 | 1016.1 |
| 20260505055834 | 74 | 233 | 3.5 | 3.5 | 0.00 | 0.27 | 0.01 | 21 | 1016.4 |
| 20260505054934 | 73 | 225 | 1.7 | 4.3 | 0.00 | 0.27 | 0.01 | 20 | 1016.0 |
| 20260505054034 | 72 | 228 | 1.7 | 5.2 | 0.00 | 0.27 | 0.01 | 21 | 1016.0 |
| 20260505053134 | 72 | 207 | 1.7 | 6.1 | 0.00 | 0.27 | 0.01 | 21 | 1016.1 |
| 20260505052234 | 73 | 223 | 2.6 | 7.0 | 0.00 | 0.27 | 0.01 | 20 | 1016.2 |
| 20260505051335 | 73 | 225 | 2.6 | 5.2 | 0.00 | 0.27 | 0.01 | 21 | 1016.4 |
| 20260505050435 | 74 | 227 | 1.7 | 6.1 | 0.00 | 0.27 | 0.01 | 21 | 1016.4 |
| 20260505041035 | 76 | 63 | 1.7 | 3.5 | 0.00 | 0.27 | 0.01 | 20 | 1017.0 |
| 20260505040134 | 76 | 32 | 0.9 | 6.1 | 0.00 | 0.27 | 0.01 | 20 | 1017.2 |
| 20260505035235 | 74 | 56 | 3.5 | 4.3 | 0.00 | 0.27 | 0.01 | 21 | 1017.4 |
| 20260505034335 | 72 | 260 | 1.7 | 3.5 | 0.00 | 0.27 | 0.01 | 21 | 1017.3 |
| 20260505032534 | 71 | 209 | 1.7 | 3.5 | 0.00 | 0.27 | 0.01 | 21 | 1017.7 |
| 20260505031635 | 72 | 88 | 1.7 | 7.0 | 0.00 | 0.27 | 0.01 | 22 | 1017.8 |
| 20260505030734 | 72 | 57 | 4.3 | 7.8 | 0.00 | 0.27 | 0.01 | 20 | 1018.1 |
| 20260505025834 | 73 | 61 | 3.5 | 7.8 | 0.00 | 0.27 | 0.01 | 21 | 1018.0 |
| 20260505024034 | 73 | 228 | 1.7 | 3.5 | 0.00 | 0.27 | 0.01 | 20 | 1018.4 |
| 20260505023134 | 73 | 64 | 1.7 | 3.5 | 0.00 | 0.27 | 0.01 | 20 | 1018.5 |
| 20260505022234 | 72 | 55 | 1.7 | 4.3 | 0.00 | 0.27 | 0.01 | 20 | 1018.6 |
| 20260505021334 | 72 | 33 | 1.7 | 4.3 | 0.00 | 0.27 | 0.01 | 23 | 1019.0 |
| 20260505020434 | 70 | 22 | 1.7 | 3.5 | 0.00 | 0.28 | 0.01 | 24 | 1019.0 |
| 20260505015535 | 69 | 90 | 1.7 | 5.2 | 0.00 | 0.28 | 0.01 | 24 | 1019.1 |
| 20260505014634 | 67 | 63 | 1.7 | 5.2 | 0.00 | 0.28 | 0.01 | 26 | 1019.1 |
| 20260505012834 | 64 | 55 | 1.7 | 4.3 | 0.00 | 0.28 | 0.01 | 34 | 1019.5 |
| 20260505011934 | 63 | 34 | 1.7 | 3.5 | 0.00 | 0.28 | 0.01 | 43 | 1019.4 |
| 20260505011034 | 62 | 29 | 0.9 | 2.6 | 0.00 | 0.28 | 0.01 | 44 | 1019.5 |
| 20260505005234 | 62 | 30 | 0.9 | 3.5 | 0.00 | 0.28 | 0.01 | 50 | 1019.4 |
| 20260505004334 | 61 | 256 | 0.9 | 3.5 | 0.00 | 0.28 | 0.01 | 51 | 1019.4 |
| 20260505003435 | 61 | 333 | 1.7 | 3.5 | 0.00 | 0.28 | 0.01 | 55 | 1019.4 |
| 20260505002534 | 61 | 274 | 1.7 | 3.5 | 0.00 | 0.28 | 0.01 | 54 | 1019.4 |
| 20260505000734 | 61 | 25 | 0.9 | 2.6 | 0.00 | 0.28 | 0.01 | 61 | 1019.2 |
| 20260504233134 | 60 | 211 | 0.9 | 1.7 | 0.00 | 0.28 | 0.01 | 71 | 1019.0 |
| 20260504225534 | 57 | 304 | 1.7 | 3.5 | 0.00 | 0.28 | 0.01 | 74 | 1018.7 |
| 20260504224634 | 57 | 303 | 2.6 | 3.5 | 0.00 | 0.28 | 0.01 | 80 | 1018.8 |
| 20260504221935 | 56 | 332 | 0.9 | 2.6 | 0.00 | 0.28 | 0.01 | 88 | 1018.6 |
| 20260504221034 | 55 | 162 | 0.9 | 1.7 | 0.00 | 0.28 | 0.01 | 89 | 1018.5 |
| 20260504220135 | 54 | 263 | 0.9 | 2.6 | 0.00 | 0.28 | 0.01 | 90 | 1018.6 |
| 20260504215235 | 54 | 302 | 0.9 | 1.7 | 0.00 | 0.28 | 0.01 | 95 | 1018.5 |
| 20260504214334 | 53 | 269 | 0.9 | 1.7 | 0.00 | 0.28 | 0.01 | 96 | 1018.3 |
| 20260504213434 | 53 | 336 | 0.9 | 1.7 | 0.00 | 0.28 | 0.01 | 98 | 1018.4 |
| 20260504212534 | 52 | 58 | 0.9 | 2.6 | 0.00 | 0.28 | 0.01 | 99 | 1018.1 |
| 20260504211634 | 51 | 181 | 0.9 | 1.7 | 0.00 | 0.28 | 0.01 | 99 | 1017.8 |
| 20260504210734 | 50 | 181 | 0.0 | 1.7 | 0.01 | 0.30 | 0.01 | 99 | 1017.9 |
| 20260504204934 | 47 | 315 | 0.0 | 1.7 | 0.01 | 0.30 | 0.01 | 98 | 1017.4 |
| 20260504204036 | 45 | 332 | 0.0 | 1.7 | 0.01 | 0.30 | 0.01 | 99 | 1017.2 |
| 20260504203134 | 43 | 268 | 0.9 | 1.7 | 0.01 | 0.30 | 0.01 | 99 | 1017.0 |
| 20260504202233 | 42 | 1 | 0.9 | 1.7 | 0.01 | 0.30 | 0.01 | 99 | 1017.2 |
| 20260504201334 | 42 | 1 | 0.0 | 0.9 | 0.00 | 0.28 | 0.01 | 99 | 1016.8 |
| 20260504200435 | 42 | 1 | 0.0 | 1.7 | 0.00 | 0.28 | 0.00 | 98 | 1017.0 |
| 20260504195534 | 42 | 1 | 0.0 | 0.9 | 0.00 | 0.28 | 0.00 | 98 | 1017.1 |
| 20260504194634 | 42 | 1 | 0.0 | 0.9 | 0.00 | 0.28 | 0.00 | 98 | 1016.8 |
| 20260504193734 | 42 | 1 | 0.0 | 0.9 | 0.00 | 0.28 | 0.00 | 98 | 1016.8 |
| 20260504192833 | 42 | 1 | 0.0 | 0.9 | 0.00 | 0.28 | 0.00 | 98 | 1016.8 |
| 20260504191934 | 42 | 1 | 0.0 | 0.9 | 0.00 | 0.28 | 0.00 | 98 | 1016.7 |
| 20260504191035 | 42 | 1 | 0.0 | 0.9 | 0.00 | 0.28 | 0.00 | 98 | 1016.7 |
| 20260504190135 | 42 | 1 | 0.0 | 0.9 | 0.00 | 0.30 | 0.00 | 98 | 1016.7 |
| 20260504185234 | 42 | 1 | 0.0 | 0.9 | 0.00 | 0.30 | 0.00 | 98 | 1016.5 |
| 20260504184334 | 42 | 1 | 0.0 | 0.9 | 0.00 | 0.31 | 0.00 | 98 | 1016.5 |
| 20260504183435 | 42 | 1 | 0.0 | 1.7 | 0.00 | 0.32 | 0.00 | 98 | 1016.5 |
| 20260504182534 | 43 | 1 | 0.9 | 1.7 | 0.00 | 0.33 | 0.00 | 98 | 1016.4 |
| 20260504181635 | 43 | 1 | 0.0 | 0.9 | 0.00 | 0.34 | 0.00 | 98 | 1016.4 |
| 20260504180734 | 43 | 1 | 0.0 | 0.9 | 0.00 | 0.34 | 0.00 | 98 | 1016.3 |
| 20260504175833 | 43 | 1 | 0.0 | 0.9 | 0.00 | 0.34 | 0.00 | 98 | 1016.4 |
| 20260504174934 | 43 | 1 | 0.0 | 0.9 | 0.00 | 0.35 | 0.00 | 98 | 1016.2 |
| 20260504174034 | 44 | 1 | 0.0 | 0.9 | 0.00 | 0.35 | 0.00 | 98 | 1016.4 |
| 20260504173135 | 44 | 1 | 0.0 | 1.7 | 0.00 | 0.35 | 0.00 | 98 | 1015.9 |
| 20260504172235 | 44 | 25 | 0.0 | 1.7 | 0.00 | 0.35 | 0.00 | 98 | 1015.8 |
| 20260504170434 | 44 | 45 | 0.0 | 0.9 | 0.00 | 0.40 | 0.00 | 98 | 1016.2 |
| 20260504160135 | 46 | 45 | 0.0 | 0.9 | 0.00 | 0.47 | 0.00 | 93 | 1015.8 |